Flag for Tuvalu Weather past 2 weeks in Funafuti, Tuvalu

Now
88 °F

Broken clouds.


Feels Like: 100 °F
Forecast: 80 / 89 °F
Wind: 8 mph from North

Location: Funafuti

Current Time: Sep 24, 2014 at 1:25:07 PM

Latest Report: Sep 24, 2014 at 1:00 PM


Visibility: N/A

Pressure: 29.80 "Hg

Humidity: 70%

Dew point: 77 °F

Location of FunafutiLocation

Historic Weather in Funafuti — Graph

°F

Funafuti temperature yesterday

Maximum temperature yesterday: 86 °F (at 2:00 PM)
Minimum temperature yesterday: 82 °F (at 2:00 AM)
Average temperature yesterday: 84 °F

Past Weeks' High & Low Weather Summary

 TemperatureHumidityPressure
High90 °F (Sep 10, 1:00 PM)94% (Sep 18, 2:00 AM)29.92 "Hg (Sep 18, 2:00 AM)
Low79 °F (Sep 13, 5:00 AM)66% (Sep 10, 10:00 AM)29.74 "Hg (Sep 14, 3:00 PM)
Average84 °F81%29.83 "Hg
* Reported Sep 9 12:00 Noon — Sep 24 12:00 Noon, Funafuti, Weather by CustomWeather, © 2014

Note: Actual official high and low records may vary slightly from our data, if they occured in-between our weather recording intervals... More about our weather records

Advertising

Funafuti weather history for previous 24 hours

 ConditionsComfort  
Time TempWeatherWind HumidityBarometerVisibility
12:00 PM
Sep 24
90 °FBroken clouds.6 mph67%29.83 "HgN/A
11:00 AM88 °FBroken clouds.6 mph70%29.83 "HgN/A
10:00 AM86 °FBroken clouds.3 mph75%29.86 "HgN/A
9:00 AM84 °FSprinkles. Broken clouds.8 mph79%29.86 "HgN/A
8:00 AM81 °FScattered showers. Broken clouds.14 mph89%29.83 "HgN/A
7:00 AM82 °FScattered showers. Broken clouds.12 mph84%29.83 "HgN/A
6:00 AM82 °FScattered clouds.14 mph89%29.80 "HgN/A
5:00 AM82 °FPassing clouds.9 mph84%29.86 "HgN/A
3:00 AM82 °FPassing clouds.12 mph84%29.80 "HgN/A
2:00 AM82 °FPassing clouds.12 mph84%29.83 "HgN/A
1:00 AM82 °FPassing clouds.9 mph84%29.83 "HgN/A
12:00 AM82 °FPassing clouds.12 mph84%29.86 "HgN/A
11:00 PM
Sep 23
84 °FScattered showers. Passing clouds.12 mph84%29.86 "HgN/A
10:00 PM82 °FPassing clouds.9 mph84%29.86 "HgN/A
9:00 PM84 °FPartly cloudy.14 mph74%29.86 "HgN/A
8:00 PM82 °FScattered showers. Partly cloudy.8 mph84%29.86 "HgN/A
7:00 PM82 °FPartly cloudy.10 mph84%29.83 "HgN/A
6:00 PM82 °FScattered showers. Partly cloudy.13 mph84%29.80 "HgN/A
5:00 PM82 °FScattered showers. Broken clouds.9 mph84%29.80 "HgN/A
4:00 PM84 °FScattered showers. Cloudy.17 mph84%29.80 "HgN/A
3:00 PM86 °FScattered showers. Broken clouds.14 mph84%29.80 "HgN/A
2:00 PM86 °FScattered showers. Broken clouds.16 mph79%29.80 "HgN/A
1:00 PM84 °FScattered showers. Broken clouds.18 mph84%N/AN/A
Weather by CustomWeather, © 2014

See weather overviewHow to use our weather pages